Location: Peebles
(55.6412°N, 3.1714°W)
Time: 05:46:42
(UTC+01:00)

deb Agena D - Pass Details

Date: 06 July 2022
Orbit: 797 x 980 km, 99.8° (Epoch: 16 August)

Event Time Altitude Azimuth Distance (km) Brightness Sun altitude
Rises 01:47:09 0° 14° (NNE) 3,374 11.4 -11.4°
Reaches altitude 10° 01:51:22 10° 342° (NNW) 2,474 9.7 -11.3°
Maximum altitude 01:52:54 11° 326° (NW) 2,401 9.3 -11.3°
Drops below altitude 10° 01:54:28 10° 309° (NW) 2,503 9.1 -11.3°
Sets 01:58:50 0° 277° (W) 3,486 9.4 -11.2°
